Flag for Germany Weather past 2 weeks in Stassfurt, Saxony-Anhalt, Germany

Now
60 °F

Clear.


Feels Like: 60 °F
Forecast: 47 / 67 °F
Wind: 5 mph from Northeast

Location: Magdeburg


UV Index: 3 (Moderate)

Visibility: 9 mi


Pressure: 29.98 "Hg

Humidity: 70%

Dew point: 50 °F

Location of StassfurtLocation

Historic Weather in Stassfurt

°F

Stassfurt temperature yesterday

Maximum temperature yesterday: 51 °F (at 1:00 PM)
Minimum temperature yesterday: 40 °F (at 10:00 PM)
Average temperature yesterday: 46 °F

Past Weeks' High & Low Weather Summary

 TemperatureHumidityPressure
High69 °F (Apr 7, 4:00 PM)100% (Apr 19, 3:00 AM)30.47 "Hg (Apr 19, 3:00 AM)
Low31 °F (Apr 16, 6:00 AM)25% (Apr 16, 1:00 PM)29.76 "Hg (Apr 8, 6:00 AM)
Average50 °F75%30.05 "Hg
* Reported Apr 4 9:00 PM — Apr 19 9:00 PM, Stassfurt, Weather by CustomWeather, © 2014

Note: Actual official high and low records may vary slightly from our data, if they occured in-between our weather recording intervals... More about our weather records

Advertising

Historic Weather Conditions — Data for Previous 24 hours

 ConditionsComfort  
Time TempWeatherWind HumidityBarometerVisibility
9:00 PM
Apr 19
62 °FClear.5 mph67%29.98 "Hg8 mi
8:00 PM65 °FSunny.5 mph64%29.96 "Hg6 mi
7:00 PM67 °FSunny.3 mph57%29.96 "Hg10 mi
6:00 PM68 °FPassing clouds.5 mph55%29.98 "Hg9 mi
4:00 PM64 °FPassing clouds.5 mph62%30.01 "Hg11 mi
3:00 PM62 °FPassing clouds.6 mph64%30.04 "Hg12 mi
2:00 PM58 °FPassing clouds.5 mph67%30.06 "Hg12 mi
1:00 PM57 °FScattered clouds.5 mph67%30.08 "Hg16 mi
12:00 PM52 °FScattered clouds.3 mph72%30.10 "Hg16 mi
11:00 AM47 °FOvercast.2 mph90%30.12 "Hg6 mi
10:00 AM42 °FFog.2 mph99%30.13 "Hg2 mi
9:00 AM40 °FFog.2 mph100%30.12 "Hg0 mi
8:00 AM37 °FFog.2 mph100%30.11 "Hg0 mi
7:00 AM36 °FFog.1 mph100%30.10 "Hg0 mi
6:00 AM35 °FFog.1 mph100%30.09 "Hg0 mi
5:00 AM34 °FPassing clouds.1 mph100%30.07 "Hg1 mi
4:00 AM35 °FFog.2 mph100%30.06 "Hg4 mi
3:00 AM35 °FFog.1 mph100%30.05 "Hg2 mi
2:00 AM35 °FFog.1 mph99%30.02 "Hg1 mi
1:00 AM37 °FFog.1 mph99%30.01 "Hg2 mi
12:00 AM37 °FFog.1 mph98%30.00 "Hg4 mi
10:00 PM
Apr 18
40 °FPassing clouds.1 mph96%29.96 "Hg13 mi
Weather by CustomWeather, © 2014

See weather overview